EST,Max TemperatureF,Mean TemperatureF,Min TemperatureF,Max Dew PointF,MeanDew PointF,Min DewpointF,Max Humidity, Mean Humidity, Min Humidity, Max Sea Level PressureIn, Mean Sea Level PressureIn, Min Sea Level PressureIn, Max VisibilityMiles, Mean VisibilityMiles, Min VisibilityMiles, Max Wind SpeedMPH, Mean Wind SpeedMPH, Max Gust SpeedMPH,PrecipitationIn, CloudCover, Events, WindDirDegrees
2014-2-1,43,37,30,31,25,19,89,65,41,30.33,30.22,30.02,10,9,4,9,2,10,0.00,5,,140
2014-2-2,52,42,32,39,35,29,100,80,59,30.07,29.95,29.91,10,5,0,12,4,14,0.00,7,Fog,257
2014-2-3,42,36,30,31,29,26,89,77,65,30.29,30.13,30.04,10,4,0,18,10,24,0.95,8,Fog-Rain-Snow,8
2014-2-4,38,29,20,25,22,17,88,72,56,30.45,30.37,30.26,10,10,10,9,5,12,0.00,5,,10
2014-2-5,34,32,29,31,28,24,89,84,78,30.22,29.90,29.61,10,4,1,23,11,31,0.92,8,Rain-Snow,29
2014-2-6,32,27,21,27,17,12,78,64,50,30.26,30.18,29.95,10,10,10,22,9,25,0.00,6,,324
2014-2-7,32,24,15,17,14,11,77,60,43,30.32,30.25,30.20,10,10,10,14,8,18,0.00,2,,265
2014-2-8,29,24,18,10,7,4,57,47,37,30.32,30.24,30.13,10,10,10,10,4,14,0.00,4,,288
2014-2-9,31,24,16,23,13,4,92,66,39,30.16,30.07,29.98,10,7,0,12,5,14,0.09,6,Snow,284
2014-2-10,28,21,14,20,10,3,88,65,42,30.26,30.11,29.97,10,10,6,22,10,26,0.00,2,,298
2014-2-11,25,17,9,9,4,2,73,57,40,30.45,30.34,30.26,10,10,10,18,7,23,0.00,1,,328
2014-2-12,29,20,10,21,8,1,75,59,42,30.55,30.46,30.29,10,10,8,15,7,20,T,5,Snow,29
2014-2-13,35,32,29,32,30,21,92,87,82,30.28,29.71,28.96,10,2,0,30,19,43,1.18,8,Fog-Rain-Snow,50
2014-2-14,40,33,26,31,26,19,92,71,50,29.77,29.24,28.93,10,7,0,32,17,45,0.06,5,Fog-Rain-Snow,285
2014-2-15,38,31,23,29,25,17,92,74,56,29.78,29.63,29.52,10,5,0,29,13,37,0.09,6,Fog-Snow,16
2014-2-16,30,26,21,16,12,9,68,55,42,30.05,29.89,29.68,10,10,10,24,13,33,T,5,,295
2014-2-17,31,24,16,9,3,-1,62,45,28,30.36,30.28,30.09,10,10,10,25,9,33,0.00,2,,328
2014-2-18,41,29,17,36,26,6,89,68,46,30.34,30.09,29.92,10,6,0,22,7,26,0.46,6,Fog-Rain-Snow,134
2014-2-19,44,33,21,43,33,19,100,85,70,30.10,29.87,29.69,10,5,1,18,7,25,0.36,6,Rain,192
2014-2-20,49,39,29,36,29,22,85,63,40,30.24,30.14,29.99,10,8,1,17,7,23,0.04,5,Rain,227
2014-2-21,52,45,37,50,40,35,100,95,89,30.02,29.86,29.68,10,3,0,24,7,35,0.14,7,Fog-Rain-Thunderstorm,107
2014-2-22,49,40,30,32,29,24,96,68,39,30.05,30.00,29.92,10,10,8,22,10,30,0.00,1,,229
2014-2-23,56,46,35,35,31,25,89,60,30,30.02,29.93,29.81,10,10,10,12,5,15,0.00,5,,247
2014-2-24,46,36,26,34,18,6,89,59,29,30.05,29.88,29.79,10,10,8,28,16,33,0.03,3,Rain,290
2014-2-25,34,28,22,13,10,6,54,48,41,30.07,30.00,29.91,10,10,9,23,10,32,T,4,,291
2014-2-26,32,24,16,25,13,-1,75,56,36,29.96,29.87,29.80,10,6,0,21,8,28,0.04,4,Snow,281
2014-2-27,33,23,12,21,6,-12,67,47,26,30.05,29.76,29.60,10,9,2,29,12,39,T,3,Snow,264
2014-2-28,24,17,10,3,-5,-12,59,44,28,30.43,30.32,30.09,10,10,10,22,8,28,0.00,1,,315